LESALEVD

Guest
Details From LESA - Salamanca
To LEVD - Valladolid - Villanubla
Flight Number -
Tags Routegen Generated
Created
Modified
Stats Distance 53 nm / 98 km
Max Altitude 100 ft / 30 m
Waypoints 6
Social Downloads 0
Likes 0
Share VATSIM

Download

Looking for another format? Having issues loading an existing format? Contact us
Advertisement - Login to hide

Notes

Departing runway 2 LESA. Arriving runway 4 LEVD.

Route

LESA +41.03_-005.45 +41.31_-005.21 +41.59_-004.97 +41.65_-004.93 LEVD

ID Type Via Altitude Latitude Longitude Leg Dist Tot Dist Heading (true) Name
O LESA APT - 0 ft / 0 m 40.96202˚ -5.49506˚ - 0 nm - -
+41.03_-005.45 LATLON - 100 ft / 30 m 41.02602˚ -5.45029˚ 4 nm 4 nm 28° / 28° -
+41.31_-005.21 LATLON - 100 ft / 30 m 41.30975˚ -5.20824˚ 20 nm 24 nm 33° / 33° -
+41.59_-004.97 LATLON - 100 ft / 30 m 41.59347˚ -4.96619˚ 20 nm 44 nm 33° / 33° -
+41.65_-004.93 LATLON - 100 ft / 30 m 41.64590˚ -4.93335˚ 3 nm 48 nm 25° / 25° -
O LEVD APT - 0 ft / 0 m 41.69700˚ -4.86475˚ 4 nm 52 nm 45° / 45° -

Altitude Profile

Advertisement - Login to hide

LESA

Details ICAO LESA (SLM)
Name Salamanca
Region Spain
Timezone Europe/Madrid (UTC+1.0)
Stats Elevation 2,595 ft / 791 m (AMSL)
Location 40.952150° -5.501645°
Runways 2
Magnetic Variation 1.292° W

METAR

Not found

TAF

TAF LESA 171700Z 1718/1818 VRB05KT CAVOK TX08/1814Z TNM05/1807Z

Decode

Departure Runways

ID Width Length Bearing (true) Bearing (mag) Surface Threshold Offset Overrun Length
03 197 ft / 60 m 8,252 ft / 2,515 m 27.81° 29.10° Asphalt 0 ft / 0 m 902 ft / 275 m
08 400 ft / 122 m 6,601 ft / 2,012 m 74.07° 75.36° Dirt 0 ft / 0 m 0 ft / 0 m
21 197 ft / 60 m 8,252 ft / 2,515 m 207.82° 209.11° Asphalt 0 ft / 0 m 902 ft / 275 m
26 400 ft / 122 m 6,601 ft / 2,012 m 254.09° 255.38° Dirt 0 ft / 0 m 0 ft / 0 m

LEVD

Details ICAO LEVD (VLL)
Name Valladolid - Villanubla
Region Spain
Timezone Europe/Madrid (UTC+1.0)
Stats Elevation 2,775 ft / 846 m (AMSL)
Location 41.708270° -4.855278°
Runways 2
Magnetic Variation 1.130° W

METAR

LEVD 172030Z 00000KT CAVOK M00/M03 Q1032

Decode

TAF

TAF LEVD 171700Z 1718/1818 VRB05KT CAVOK TX08/1815Z TNM04/1807Z

Decode

Destination Runways

ID Width Length Bearing (true) Bearing (mag) Surface Threshold Offset Overrun Length
05 197 ft / 60 m 9,851 ft / 3,003 m 45.09° 46.22° Asphalt 0 ft / 0 m 676 ft / 206 m
15 197 ft / 60 m 2,975 ft / 907 m 144.18° 145.31° Dirt 0 ft / 0 m 213 ft / 65 m
23 197 ft / 60 m 9,851 ft / 3,003 m 225.10° 226.23° Asphalt 0 ft / 0 m 164 ft / 50 m
33 197 ft / 60 m 2,975 ft / 907 m 324.18° 325.31° Dirt 0 ft / 0 m 656 ft / 200 m

Approach Navaids

Runway Type Ident Frequency Range Bearing (true) Bearing (mag) Slope Elevation
23 Localiser IVD 109.30 MHz 18 nm / 33 km 225.13° 226.26° - 2,779 ft / 847 m (AMSL)
23 Glidescope IVD 109.30 MHz 10 nm / 19 km 225.10° 226.23° 2.80° 2,775 ft / 846 m (AMSL)

Popular Alternatives